Flag for U.S.A. Weather past 2 weeks in Irving, Texas, U.S.A.

Now
79 °F

Light rain. Scattered clouds.


Feels Like: 81 °F
Forecast: 66 / 82 °F
Wind: 16 mph from Southwest

Location: Dallas / Fort Worth International Airport

Current Time: Mar 31, 2015 at 1:54:57 PM

Latest Report: Mar 31, 2015 at 12:53 PM


Visibility: 10 mi

Pressure: 29.95 "Hg

Humidity: 60%

Dew point: 64 °F

Location of IrvingLocation

Historic Weather in Irving — Graph

°F

Irving temperature yesterday

Maximum temperature yesterday: 75 °F (at 4:53 PM)
Minimum temperature yesterday: 59 °F (at 6:53 AM)
Average temperature yesterday: 68 °F

Past Weeks' High & Low Weather Summary

 TemperatureHumidityPressure
High82 °F (Mar 24, 3:53 PM)100% (Mar 19, 9:53 AM)30.24 "Hg (Mar 19, 9:53 AM)
Low45 °F (Mar 27, 5:53 AM)28% (Mar 26, 4:53 PM)29.73 "Hg (Mar 25, 11:53 PM)
Average63 °F71%30.02 "Hg
* Reported Mar 16 11:53 AM — Mar 31 11:53 AM, Irving, Weather by CustomWeather, © 2015

Note: Actual official high and low records may vary slightly from our data, if they occured in-between our weather recording intervals... More about our weather records

Advertising

Irving weather history for previous 24 hours

 ConditionsComfort  
Time TempWeatherWind HumidityBarometerVisibility
11:53 AM
Tue, Mar 31
77 °FScattered clouds.16 mph64%29.98 "Hg10 mi
10:53 AM75 °FScattered clouds.20 mph69%29.98 "Hg10 mi
9:53 AM72 °FScattered clouds.20 mph76%29.98 "Hg10 mi
8:53 AM69 °FPassing clouds.16 mph84%29.98 "Hg10 mi
7:53 AM65 °FPassing clouds.14 mph91%29.97 "Hg10 mi
6:53 AM64 °FPassing clouds.10 mph94%29.96 "Hg10 mi
5:53 AM65 °FPassing clouds.9 mph91%29.95 "Hg10 mi
4:53 AM65 °FPassing clouds.8 mph91%29.94 "Hg10 mi
3:53 AM65 °FPassing clouds.9 mph91%29.93 "Hg10 mi
2:53 AM66 °FPartly cloudy.12 mph87%29.95 "Hg10 mi
1:53 AM65 °FPartly cloudy.8 mph87%29.97 "Hg10 mi
12:53 AM66 °FPartly cloudy.6 mph87%29.97 "Hg10 mi
11:53 PM
Mon, Mar 30
67 °FPassing clouds.8 mph87%29.99 "Hg10 mi
10:53 PM67 °FMostly cloudy.8 mph85%30.01 "Hg10 mi
9:53 PM68 °FMostly cloudy.8 mph84%30.02 "Hg10 mi
8:53 PM70 °FOvercast.9 mph79%30.00 "Hg10 mi
7:53 PM71 °FMostly cloudy.9 mph73%30.00 "Hg10 mi
6:53 PM73 °FOvercast.12 mph71%30.02 "Hg10 mi
5:53 PM74 °FOvercast.10 mph67%30.02 "Hg10 mi
4:53 PM75 °FOvercast.9 mph66%30.03 "Hg10 mi
3:53 PM73 °FOvercast.10 mph71%30.06 "Hg10 mi
2:53 PM72 °FOvercast.9 mph73%30.09 "Hg10 mi
1:53 PM72 °FMore clouds than sun.9 mph73%30.12 "Hg10 mi
Weather by CustomWeather, © 2015

See weather overviewHow to use our weather pages